Weather History for KDLH - April, 2013

Change the Weather History Date:

Monday, April 8, 2013

  Actual Average Record
Temperature  
Mean Temperature 36 °F 36 °F  
Max Temperature 39 °F 45 °F 74 °F (1987)
Min Temperature 32 °F 27 °F 5 °F (1972)
Degree Days  
Heating Degree Days 29 29  
Month to date heating degree days 275 244  
Since 1 July heating degree days 8116 8321  
Cooling Degree Days 0 0  
Month to date cooling degree days 0 0  
Year to date cooling degree days 0 0  
Moisture  
Dew Point 31 °F    
Average Humidity 83    
Maximum Humidity 89    
Minimum Humidity 76    
Precipitation  
Precipitation 0.24 in 0.07 in 0.87 in (1875)
Month to date precipitation 1.22 0.52  
Year to date precipitation 5.81 3.78  
Snow  
Snow 1.50 in 0.30 in 4.00 in (1921)
Month to date snowfall 6.5 2.5  
Since 1 July snowfall 85.1 81.3  
Snow Depth 12.00 in    
Sea Level Pressure  
Sea Level Pressure 29.88 in    
Wind  
Wind Speed 6 mph (East)    
Max Wind Speed 12 mph    
Max Gust Speed 15 mph    
Visibility 7 miles    
Events Rain , Snow    
T = Trace of Precipitation, MM = Missing Value Source: NWS Daily Summary

Daily Weather History Graph

Daily Weather History Graph

Search for Another Location

Airport or City:

Trip Planner

Search our weather history database for the weather conditions in past years. The results will help you decide how hot, cold, wet, or windy it might be!

Date:

Astronomy

Apr. 08, 2013 Rise Set
Actual Time 6:33 AM CDT 7:47 PM CDT
Civil Twilight 6:02 AM CDT 8:19 PM CDT
Nautical Twilight 5:25 AM CDT 8:57 PM CDT
Astronomical Twilight 4:45 AM CDT 9:37 PM CDT
Moon 5:29 AM CDT (4/8) 6:19 PM CDT (4/8)
Length of Visible Light 14h 16m
Length of Day
13h 14m
Waning Crescent, 3% of the Moon is Illuminated
Apr 8
Waning Crescent
Apr 10
New
Apr 18
First Quarter
Apr 25
Full
May 2
Last Quarter

Hourly Weather History & Observations

Time (CDT) Temp. Windchill Dew Point Humidity Pressure Visibility Wind Dir Wind Speed Gust Speed Precip Events Conditions
12:09 AM 33.8 °F 28.6 °F 30.2 °F 87% 29.83 in 2.0 mi East 5.8 mph - 0.00 in Snow Light Snow
12:23 AM 33.8 °F 29.6 °F 30.2 °F 87% 29.83 in 1.0 mi East 4.6 mph - 0.01 in Snow Light Snow
12:45 AM 33.8 °F 27.7 °F 30.2 °F 87% 29.83 in 0.8 mi ESE 6.9 mph - 0.04 in Snow Light Snow
12:52 AM 33.8 °F 27.0 °F 30.2 °F 87% 29.83 in 0.8 mi East 8.1 mph - 0.05 in Snow Light Snow
12:55 AM 34.0 °F 26.6 °F 30.9 °F 89% 29.88 in 0.8 mi East 9.2 mph - 0.06 in Snow Light Snow
1:13 AM 33.8 °F 26.4 °F 30.2 °F 87% 29.82 in 1.0 mi East 9.2 mph - 0.03 in Snow Light Snow
1:17 AM 33.8 °F 26.4 °F 30.2 °F 87% 29.82 in 0.8 mi East 9.2 mph - 0.03 in Snow Light Snow
1:32 AM 33.8 °F 26.4 °F 30.2 °F 87% 29.82 in 1.0 mi ESE 9.2 mph - 0.06 in Snow Light Snow
1:55 AM 33.1 °F 26.1 °F 30.0 °F 89% 29.87 in 1.0 mi ESE 8.1 mph - 0.09 in Snow Light Snow
2:32 AM 32.0 °F 25.6 °F 28.4 °F 87% 29.81 in 3.0 mi ESE 6.9 mph - 0.05 in Snow Light Snow
2:55 AM 33.1 °F 25.5 °F 30.0 °F 89% 29.85 in 5.0 mi East 9.2 mph - 0.07 in Snow Light Snow
3:22 AM 33.8 °F 27.0 °F 30.2 °F 87% 29.79 in 8.0 mi East 8.1 mph - 0.02 in Rain , Snow Light Freezing Rain
3:55 AM 33.1 °F 26.9 °F 30.9 °F 92% 29.84 in 6.0 mi East 6.9 mph - 0.05 in Rain Light Freezing Rain
4:55 AM 33.1 °F 26.9 °F 30.9 °F 92% 29.83 in 10.0 mi East 6.9 mph - 0.02 in Rain Light Freezing Rain
5:37 AM 33.8 °F 27.0 °F 30.2 °F 87% 29.78 in 7.0 mi East 8.1 mph - 0.00 in Rain Light Rain
5:50 AM 33.8 °F 27.0 °F 30.2 °F 87% 29.78 in 6.0 mi ENE 8.1 mph - 0.01 in Rain Light Freezing Rain
5:55 AM 33.1 °F 26.1 °F 30.9 °F 92% 29.83 in 5.0 mi ENE 8.1 mph - 0.01 in Rain Light Freezing Rain
6:28 AM 33.8 °F 25.3 °F 30.2 °F 87% 29.77 in 2.0 mi ENE 11.5 mph - 0.00 in Rain Light Rain
6:47 AM 33.8 °F 26.4 °F 30.2 °F 87% 29.78 in 4.0 mi East 9.2 mph - 0.00 in   Light Drizzle
6:55 AM 33.1 °F 25.5 °F 30.0 °F 89% 29.83 in 4.0 mi ENE 9.2 mph - 0.00 in   Light Drizzle
7:55 AM 34.0 °F 27.2 °F 30.9 °F 89% 29.84 in 8.0 mi ENE 8.1 mph - 0.00 in   Light Drizzle
8:55 AM 34.0 °F 28.0 °F 30.9 °F 89% 29.84 in 10.0 mi ENE 6.9 mph - 0.00 in   Overcast
9:55 AM 34.0 °F 26.6 °F 30.9 °F 89% 29.85 in 10.0 mi NE 9.2 mph - N/A   Overcast
10:55 AM 35.1 °F 31.0 °F 32.0 °F 89% 29.86 in 10.0 mi ENE 4.6 mph - N/A   Overcast
11:26 AM 35.6 °F 31.7 °F 32.0 °F 87% 29.81 in 10.0 mi ENE 4.6 mph - N/A   Overcast
11:55 AM 37.0 °F 31.6 °F 32.0 °F 82% 29.87 in 10.0 mi NE 6.9 mph - N/A   Overcast
12:55 PM 37.9 °F 33.5 °F 33.1 °F 83% 29.88 in 10.0 mi ENE 5.8 mph - N/A   Overcast
1:13 PM 39.2 °F 37.0 °F 33.8 °F 81% 29.83 in 10.0 mi NE 3.5 mph - N/A   Overcast
1:55 PM 37.0 °F 31.6 °F 33.1 °F 86% 29.89 in 10.0 mi SE 6.9 mph - N/A   Overcast
2:08 PM 35.6 °F 29.9 °F 32.0 °F 87% 29.84 in 10.0 mi SE 6.9 mph - N/A   Overcast
2:17 PM 35.6 °F 29.9 °F 32.0 °F 87% 29.85 in 9.0 mi ESE 6.9 mph - N/A   Overcast
2:55 PM 36.0 °F 33.3 °F 32.0 °F 86% 29.91 in 10.0 mi SE 3.5 mph - N/A   Overcast
3:55 PM 37.9 °F - 33.1 °F 83% 29.92 in 10.0 mi Calm Calm - N/A   Overcast
4:35 PM 37.4 °F 33.8 °F 32.0 °F 81% 29.87 in 10.0 mi SE 4.6 mph - N/A   Overcast
4:55 PM 37.0 °F 33.3 °F 32.0 °F 82% 29.94 in 10.0 mi ESE 4.6 mph - N/A   Overcast
5:55 PM 37.0 °F 33.3 °F 32.0 °F 82% 29.96 in 10.0 mi SSE 4.6 mph - N/A   Overcast
6:55 PM 37.0 °F - 32.0 °F 82% 30.01 in 10.0 mi Calm Calm - N/A   Overcast
7:55 PM 37.9 °F - 32.0 °F 79% 30.04 in 10.0 mi Calm Calm - N/A   Overcast
8:55 PM 37.9 °F 35.5 °F 30.9 °F 76% 30.06 in 10.0 mi North 3.5 mph - N/A   Overcast
9:48 PM 37.4 °F 33.8 °F 30.2 °F 75% 30.02 in 10.0 mi North 4.6 mph - N/A   Overcast
9:55 PM 37.9 °F 34.4 °F 30.0 °F 73% 30.07 in 10.0 mi NNW 4.6 mph - N/A   Overcast
10:55 PM 37.0 °F - 30.0 °F 76% 30.07 in 10.0 mi Calm Calm - N/A   Partly Cloudy
11:55 PM 35.1 °F 29.3 °F 30.0 °F 82% 30.09 in 10.0 mi NNW 6.9 mph - N/A   Scattered Clouds